Theta_e
302 300 299 301 302 302 302 302 301 303 301 301 300 300 301 301 299 300 301 298 298 299 300 300 302 304 303 303 303 302 302 301 300 301 300 300 301 302 301 300 301 301 300 300
300 298 301 301 301 301 301 301 300 302 301 300 301 300 302 303 303 303 302 301 301 299 297 299 300 302 303 303 303 302 302 301 301 301 300 301 300 300 299 301 301 301 300 299
298 300 300 301 301 301 301 301 302 303 303 301 300 302 303 305 303 303 303 302 301 301 298 298 299 300 301 302 302 302 302 302 301 301 300 300 299 299 300 301 301 300 299 298
300 299 299 299 301 300 301 301 302 302 302 301 303 302 303 305 306 304 302 301 301 300 299 299 299 299 300 301 302 302 302 301 301 300 300 299 299 300 300 300 300 299 299 298
299 297 299 300 300 300 301 300 302 302 302 303 303 302 302 303 307 307 303 301 300 299 299 297 299 299 300 301 302 302 301 301 301 300 300 299 299 299 299 300 299 298 298 297
299 297 298 299 297 299 299 300 302 302 302 303 302 303 302 307 308 306 305 303 301 299 299 299 298 299 299 301 302 302 301 301 300 300 300 299 299 299 299 299 298 298 297 297
299 297 296 297 297 298 300 301 307 308 304 306 301 303 304 305 305 305 304 303 300 299 298 297 297 297 299 300 301 301 301 301 300 300 300 299 299 299 299 298 297 297 296 296
299 299 295 295 297 298 298 302 305 305 316 314 301 305 308 305 304 304 302 301 300 299 298 298 297 297 299 300 301 301 301 301 300 300 299 299 298 299 298 297 297 296 296 295
302 305 296 295 296 297 298 300 301 303 297 304 303 303 305 305 303 302 302 300 299 299 298 298 297 297 299 301 302 302 301 301 300 300 299 299 298 298 298 297 296 296 295 295
303 301 296 295 295 296 298 298 301 300 298 305 307 305 306 308 305 302 302 300 299 298 298 297 297 297 299 301 302 302 302 301 300 300 299 299 298 298 297 296 296 295 295 294
295 301 298 295 294 296 296 298 299 302 306 309 310 308 302 305 305 304 301 300 299 298 298 297 296 298 300 300 302 302 301 301 301 300 299 299 298 297 296 296 295 295 295 294
298 298 297 296 295 294 296 298 299 303 303 304 308 306 304 306 304 302 303 302 299 298 297 296 296 297 298 299 300 301 301 300 300 300 299 298 297 297 296 295 295 294 294 293
301 299 295 298 296 293 293 296 299 300 301 301 303 305 301 304 305 304 304 303 301 300 298 298 296 296 296 298 299 300 300 300 300 300 298 297 297 296 295 295 294 294 293 293
300 304 298 305 302 294 292 294 297 297 297 302 305 305 305 304 304 303 304 303 302 301 300 298 297 296 297 298 299 299 299 300 299 298 298 297 297 296 295 294 294 294 293 293
301 304 303 303 304 297 296 292 296 299 301 302 304 303 304 304 303 303 301 301 300 300 299 298 297 297 296 298 299 299 299 299 299 297 297 297 296 295 295 294 294 293 293 293
298 302 300 302 301 303 304 301 296 298 299 300 302 301 302 301 301 301 301 301 300 300 300 299 298 298 297 297 298 298 298 298 298 296 296 296 295 295 294 294 293 293 293 292
298 301 304 310 304 302 305 304 302 299 297 300 301 302 301 301 300 302 303 303 303 299 300 300 299 298 297 298 300 298 298 298 296 296 296 295 295 294 294 293 292 292 292 292
301 302 306 309 305 308 307 303 302 303 303 301 301 303 304 304 302 303 303 303 304 303 301 298 300 298 299 301 300 299 298 296 296 295 295 295 294 294 293 292 292 292 292 291
304 306 308 308 308 307 306 304 301 299 302 300 301 301 301 301 301 301 301 302 303 303 302 300 301 300 300 300 300 298 295 294 294 294 294 294 294 293 293 292 292 291 291 290
303 305 307 307 308 307 304 303 302 298 307 290 294 302 301 300 300 303 302 301 300 299 299 299 299 299 299 299 298 295 293 293 293 294 294 294 294 294 293 293 292 291 291 291
303 305 305 306 306 305 298 295 300 302 302 289 289 289 291 297 297 296 297 299 298 298 296 297 296 295 297 298 296 293 292 292 294 294 295 294 294 294 293 292 291 290 288 289
303 304 305 304 306 307 289 293 297 291 288 287 286 286 288 288 289 290 291 293 295 293 293 294 293 293 294 295 294 292 291 294 294 294 294 294 293 293 292 291 290 287 286 287
299 297 297 294 296 292 289 288 287 286 287 285 284 284 284 285 286 285 285 287 290 291 292 293 292 291 292 293 293 291 293 293 293 293 293 293 293 292 292 290 289 286 286 286
292 293 291 292 295 291 289 286 285 285 284 282 281 282 282 283 284 283 283 284 284 285 287 289 291 289 290 293 293 293 293 293 293 292 292 292 291 290 290 289 288 287 287 286
287 289 290 292 291 290 286 281 278 280 280 278 277 278 280 282 282 280 281 281 281 281 281 282 285 288 290 292 292 292 292 293 292 291 290 290 290 289 288 288 287 287 288 290
286 284 288 288 285 285 286 279 275 276 275 275 274 275 276 279 278 277 277 278 278 277 277 278 278 280 283 286 290 293 292 291 292 290 289 288 288 287 287 287 286 287 287 289
Wind_Speed
2 3 7 10 7 1 3 3 5 3 3 4 8 14 19 13 8 14 16 13 14 17 15 27 34 36 38 35 35 35 32 28 25 22 16 12 10 8 8 7 8 7 7 11
3 7 5 4 2 4 3 3 6 2 3 3 7 14 19 17 14 17 18 17 17 10 10 17 29 37 40 40 39 38 34 30 28 23 18 9 9 8 7 6 7 5 10 12
6 3 4 4 4 4 3 5 4 3 3 4 6 9 8 7 12 14 13 12 17 16 13 15 18 29 33 39 40 38 35 32 29 24 19 14 9 8 8 8 7 8 10 12
5 3 4 3 4 6 4 3 2 1 1 4 2 6 7 9 8 6 10 12 12 15 9 13 17 22 30 36 40 37 35 33 29 25 22 19 16 11 8 8 8 8 9 10
5 6 4 3 5 6 5 2 3 2 2 3 3 3 8 5 8 8 9 8 8 9 10 11 16 27 31 36 40 37 35 31 30 29 24 21 18 14 10 9 9 9 8 8
0 1 2 3 3 2 6 4 3 3 2 2 7 7 5 5 5 2 1 6 8 8 7 6 13 22 25 36 39 37 35 32 31 29 25 23 20 16 13 11 11 8 8 9
1 4 1 3 5 5 1 5 1 3 1 6 1 3 7 11 6 4 6 4 6 6 7 7 8 10 22 32 36 36 34 33 33 30 27 24 21 18 14 12 10 7 8 10
6 5 8 5 5 5 6 5 5 7 4 3 3 7 6 8 4 2 5 7 6 6 6 7 8 10 21 29 34 32 34 35 33 30 28 25 21 18 15 12 10 7 8 9
5 3 1 2 1 4 6 5 1 5 2 3 5 7 10 7 6 6 9 8 9 8 8 8 8 13 22 30 36 39 38 37 34 32 29 25 22 19 17 13 10 8 7 8
5 1 1 2 1 2 3 1 2 2 2 4 5 5 7 5 8 7 7 9 9 8 8 8 8 14 26 31 34 35 37 37 35 32 29 27 24 21 17 14 11 9 7 8
4 4 1 3 8 9 4 3 2 2 4 5 2 6 7 9 8 10 11 8 9 10 9 8 8 16 24 25 30 35 33 33 33 32 30 28 25 21 18 15 11 9 7 8
7 5 5 9 1 1 2 6 6 4 5 4 3 8 4 4 5 6 7 7 7 7 9 9 9 13 18 25 28 32 33 33 33 33 32 29 24 21 19 16 12 9 8 8
5 4 1 6 4 4 4 7 5 3 3 7 5 7 1 2 1 2 3 3 4 7 8 7 7 8 12 22 26 30 32 33 32 32 30 27 25 23 21 16 12 10 8 7
5 2 7 11 7 6 4 6 9 6 4 5 18 4 1 4 1 2 3 4 7 7 9 8 8 9 14 23 28 30 31 33 32 31 31 29 27 25 21 16 13 11 9 8
5 6 7 15 1 3 6 6 12 17 22 9 19 14 14 13 10 8 9 8 8 10 9 10 10 11 10 18 26 30 31 32 33 33 32 31 27 22 20 17 14 12 11 10
5 6 4 11 10 9 5 9 13 19 11 21 21 18 3 5 5 6 10 9 11 12 13 13 13 14 12 18 25 29 32 32 33 35 33 28 24 23 22 18 16 14 12 11
8 4 6 16 5 4 3 25 12 8 9 15 17 24 6 8 14 18 21 15 15 12 14 15 15 15 13 23 29 29 32 32 34 34 31 27 27 26 23 19 17 15 13 12
9 9 4 7 5 12 10 8 19 22 22 19 20 24 21 18 14 21 19 14 19 17 13 12 13 11 24 31 28 29 31 33 35 33 31 29 29 28 23 21 19 17 16 14
12 8 6 8 13 10 8 6 7 8 12 15 21 23 21 17 11 26 14 17 18 16 12 14 21 24 26 30 28 28 29 32 33 32 32 33 32 29 26 23 22 19 17 16
16 16 11 8 7 11 8 11 10 5 13 13 18 14 13 3 7 18 4 11 14 11 10 9 17 16 21 26 28 30 27 30 28 33 35 35 33 30 28 25 22 20 17 17
10 11 20 18 14 7 8 14 1 6 4 14 14 14 14 5 7 18 20 11 6 5 8 12 13 14 25 27 31 24 24 26 37 34 33 33 32 31 28 24 22 18 15 14
5 5 7 8 11 13 15 3 2 6 6 8 11 14 17 13 15 17 17 20 18 13 12 10 6 9 12 24 30 21 24 33 30 29 31 32 33 30 27 24 22 17 16 16
1 3 3 7 4 3 7 12 6 3 5 8 10 11 14 16 15 17 16 18 20 19 14 15 9 7 6 16 24 18 22 23 25 25 30 32 31 30 29 28 25 19 18 17
1 3 2 6 2 3 8 9 4 4 6 8 10 9 10 13 15 16 16 15 14 15 19 29 19 7 8 11 18 20 15 18 23 27 29 30 30 30 29 29 26 18 17 15
4 2 1 4 0 1 9 9 7 8 9 12 12 11 13 12 13 14 14 15 15 16 23 26 24 20 18 19 15 19 21 20 24 24 26 28 30 31 29 30 27 25 25 26
2 4 1 6 1 2 2 9 10 8 10 12 13 15 14 12 13 13 14 15 17 19 25 21 23 25 26 24 23 19 22 23 23 22 24 25 25 26 24 22 19 21 22 22
Wind_Direction
184 133 211 208 216 333 108 216 245 258 197 209 232 258 270 262 243 247 237 224 221 216 209 204 201 197 195 196 196 196 194 198 195 194 196 209 214 217 232 255 274 275 308 319
73 226 195 127 162 205 210 249 264 260 181 204 280 268 268 261 241 230 226 224 224 211 192 197 194 193 193 196 196 194 197 197 200 203 201 194 195 225 240 246 257 269 304 313
175 195 137 168 171 176 217 202 236 250 301 232 316 282 259 271 240 244 227 218 216 213 197 195 190 193 190 193 193 193 196 202 203 203 200 204 213 228 235 238 226 277 298 315
230 180 177 166 204 158 225 183 180 253 15 247 183 284 286 277 264 226 231 217 210 208 194 189 190 189 190 193 195 194 197 202 205 206 207 207 213 213 225 236 258 275 298 310
233 161 174 177 211 174 217 137 136 138 201 349 240 264 271 253 263 244 235 227 224 201 185 181 188 187 191 192 192 194 198 203 205 205 212 211 216 227 233 243 259 277 299 304
194 335 211 193 84 16 144 100 59 51 83 316 218 194 248 224 241 310 354 211 214 199 183 168 177 176 175 187 191 193 197 200 203 209 212 214 218 222 224 239 252 276 296 303
172 215 160 145 91 5 163 104 327 344 4 228 307 174 262 273 255 230 211 183 175 165 156 163 144 157 168 179 190 196 198 198 201 210 214 215 220 224 231 240 250 267 288 304
169 288 169 183 194 183 188 180 169 204 201 247 20 231 252 243 263 212 173 164 154 167 175 176 173 164 171 181 191 194 198 198 201 209 216 217 220 225 233 238 242 259 283 295
143 261 51 47 19 135 189 205 255 101 55 53 224 274 295 227 193 167 167 163 179 182 186 183 177 175 175 183 194 197 198 202 206 213 216 215 218 223 230 232 239 255 270 284
208 49 8 327 291 247 190 209 108 354 161 248 270 260 233 231 215 215 220 207 199 182 181 184 186 188 189 193 197 200 205 207 211 214 216 216 218 224 229 230 236 246 262 277
140 125 332 45 204 185 162 210 189 142 172 187 264 257 227 229 222 205 226 216 201 192 190 192 193 197 199 201 203 207 210 213 214 213 213 213 215 219 224 229 231 241 253 266
209 151 177 204 197 25 232 202 170 140 230 233 171 258 257 222 193 192 227 221 202 184 192 201 194 191 197 208 210 212 215 215 216 212 208 211 212 214 221 223 225 231 243 256
192 224 79 339 354 349 203 202 203 129 81 216 154 263 19 350 7 75 153 120 175 194 201 210 204 203 204 211 214 217 217 217 215 211 206 208 209 213 217 219 218 225 235 249
132 239 188 222 196 136 191 209 199 149 166 188 231 249 348 187 195 168 204 237 219 205 201 204 210 212 211 216 215 216 217 215 209 205 205 207 210 214 214 213 214 220 225 236
110 242 299 286 270 152 197 181 189 206 221 198 252 219 231 262 277 264 223 221 219 219 223 217 213 215 220 220 222 220 217 212 207 206 206 209 212 210 208 209 212 215 218 227
169 209 130 270 259 222 239 240 217 216 230 243 256 263 10 247 267 294 272 238 227 224 220 222 220 221 223 218 219 218 218 210 204 206 205 208 205 202 205 208 209 212 216 223
161 194 182 253 169 116 264 238 223 215 211 220 236 250 220 240 243 245 250 245 248 232 224 224 223 223 220 224 224 213 211 205 201 202 204 203 201 202 205 205 206 209 212 221
171 191 201 268 139 223 237 189 205 215 234 228 253 260 251 251 250 253 252 255 254 247 237 228 229 227 223 230 222 216 203 197 197 200 202 200 199 202 202 202 206 210 211 218
215 213 232 228 227 256 284 240 181 163 248 223 230 246 252 252 266 267 247 243 253 252 235 229 229 228 222 220 213 202 195 192 193 197 199 199 200 200 200 203 208 213 214 219
205 217 222 229 238 250 247 256 218 126 251 21 350 265 276 217 225 265 255 245 254 266 266 256 245 228 217 212 199 190 184 186 192 199 202 201 200 202 203 208 208 212 215 221
213 219 229 236 248 253 355 334 10 182 303 355 359 348 349 342 330 339 343 326 334 314 307 302 257 213 211 201 189 178 178 195 204 204 202 202 203 205 208 207 208 209 215 225
215 216 215 221 239 235 348 48 3 8 18 14 10 2 351 334 330 351 349 343 344 336 333 326 278 259 219 194 184 173 188 205 203 201 199 201 203 205 204 203 203 207 212 223
214 357 312 25 24 85 62 84 90 10 342 351 355 1 348 345 347 349 347 347 346 344 335 336 318 294 241 200 195 182 205 201 198 195 199 202 203 203 204 199 202 198 207 216
31 114 15 359 163 71 128 107 57 32 3 346 344 341 351 345 346 346 344 342 344 347 351 347 318 306 276 230 219 220 223 211 202 200 201 201 202 201 204 207 210 202 202 208
203 3 119 240 207 28 140 72 27 6 360 347 341 343 345 342 342 341 335 341 342 343 347 349 350 346 333 327 276 248 232 216 210 210 206 203 204 204 202 208 205 209 222 222
164 206 232 279 27 248 308 15 33 16 354 339 335 335 338 336 334 338 333 334 338 334 335 346 342 341 333 332 321 284 245 223 213 208 209 206 204 207 205 202 213 224 233 236